This is the latest recevied weather packets stored in our database for station/object DL3MEB-6. If no packets are shown the sender has not sent any weather packets the latest 10 day(s).
| Time | Temp. | Humidity | Pressure | Rain* | Wind** | Luminosity | Snow |
|---|---|---|---|---|---|---|---|
| 1778325697 | 21.67° C | 41% | 1015.7 hPa | 0 mm | - | - | - |
| 1778324785 | 21.11° C | 43% | 1016 hPa | 0 mm | - | - | - |
| 1778323872 | 21.11° C | 41% | 1016.2 hPa | 0 mm | - | - | - |
| 1778322972 | 20.56° C | - | - | - | - | - | - |
| 1778322970 | 20.56° C | 46% | 1016.3 hPa | 0 mm | - | - | - |
| 1778322056 | 19.44° C | 47% | 1016.5 hPa | 0 mm | - | - | - |
| 1778321150 | 18.89° C | 54% | 1016.6 hPa | 0 mm | - | - | - |
| 1778320249 | 18.33° C | 58% | 1016.6 hPa | 0 mm | - | - | - |
| 1778319341 | 17.22° C | 59% | 1016.9 hPa | 0 mm | - | - | - |
| 1778318426 | 16.67° C | 63% | 1017.1 hPa | 0 mm | - | - | - |
| 1778317516 | 15.56° C | 63% | 1017 hPa | 0 mm | - | - | - |
| 1778316609 | 15° C | 69% | 1017.2 hPa | 0 mm | - | - | - |
| 1778315705 | 13.89° C | 72% | 1017.3 hPa | 0 mm | - | - | - |
| 1778314804 | 13.33° C | 75% | 1017.4 hPa | 0 mm | - | - | - |
| 1778313903 | 12.78° C | 77% | 1017.3 hPa | 0 mm | - | - | - |
| 1778312991 | 12.22° C | 78% | 1017.3 hPa | 0 mm | - | - | - |
| 1778312087 | 12.22° C | 79% | 1017.4 hPa | 0 mm | - | - | - |
| 1778311180 | 11.67° C | 79% | 1017.5 hPa | 0 mm | - | - | - |
| 1778310274 | 11.67° C | 81% | 1017.1 hPa | 0 mm | - | - | - |
| 1778309369 | 11.11° C | 82% | 1017.2 hPa | 0 mm | - | - | - |
| 1778308454 | 11.11° C | 82% | 1017.2 hPa | 0 mm | - | - | - |
| 1778307549 | 10.56° C | 83% | 1017.1 hPa | 0 mm | - | - | - |
| 1778306647 | 10.56° C | 84% | 1017.1 hPa | 0 mm | - | - | - |
| 1778305736 | 10° C | 87% | 1017 hPa | 0 mm | - | - | - |
| 1778304828 | 9.44° C | 88% | 1016.9 hPa | 0 mm | - | - | - |
* Rain latest hour (hover to see other rain measurements)
** Current wind speed in m/s (hover to see current wind gust speed)